Weather in Marakan

Russia / Irkutsk Oblast     58°42′00″N   114°34′57″E
temp.,
°C
wind,
m/s
gust,
m/s
humid.,
%
clouds,
%
prec.,
mm/h
press.,
hPa
HPBL,
m
19 january, tue
tue1923:00−35e1171100 0.0 101919
02:00−33e1199100 0.1 101719
05:00−32e2299100 0.1 101419
08:00−31e2299100 0.3 101134
11:00−29e2298100 0.3 1005128
14:00−26s2397100 0.8 1003270
17:00−26s2299100 0.5 100542
20:00−27s22100100 0.8 100721
20 january, wed
wed2023:00−27ssw22100100 0.1 100821
02:00−25sw2299100 0.2 101024
05:00−24sw3497100 0.1 101176
08:00−25wsw3498100 0.1 101350
11:00−25wsw3597100 0.0 1015180
14:00−25wsw2296100 0.1 101732
17:00−30w2210098 0.0 102019
20:00−31w1210098 0.0 102319
21 january, thu
thu2123:00−32w22100100 0.0 102619
02:00−32w2298100 0.1 102819
05:00−33wsw2298100 0.0 103019
08:00−33w1299100 0.1 103219
11:00−32wsw2296100 0.1 1033197
14:00−31sw2786100 0.1 1033752
17:00−33sw2296100 0.0 103319
20:00−34sw1198100 0.1 103319
22 january, fri
fri2223:00−36ssw00100100 0.0 103219
02:00−36ese11100100 0.1 103119
05:00−36ese11100100 0.0 102919
08:00−36ene11100100 0.1 102819
11:00−34e1198100 0.0 102625
14:00−32ene1197100 0.1 102445
17:00−32ene2297100 0.0 102219
20:00−32ene1299100 0.1 102119
23 january, sat
sat2323:00−31ene1199100 0.1 101919
02:00−30e1298100 0.3 101822
05:00−30e1299100 0.1 101819
08:00−29e1198100 0.1 101819
11:00−27e1196100 0.1 1018127
14:00−26se1195100 0.2 1018187
17:00−26se01100100 0.2 102119
20:00−26w1199100 0.3 102320